Tracking 22438 objects as of 24-Feb-2021
HD Live streaming from Space Station
objects crossing your sky now

FREGAT DEB

Track FREGAT DEB now!
10-day predictions


NORAD ID: 46093
Int'l Code: 2011-037JC
Perigee: 787.2 km
Apogee: 5,026.9 km
Inclination: 51.2 °
Period: 148.2 minutes
Semi major axis: 9278 km
RCS: Unknown
Launch date: July 18, 2011
Source: Commonwealth of Independent States (former USSR) (CIS)
Launch site: TYURATAM MISSILE AND SPACE COMPLEX (TTMTR)

Note: This is SATELLITE DEBRIS
aabbcc
Your satellite tracking list
Your tracking list is empty




NASA's NSSDC Master Catalog

Two Line Element Set (TLE):
1 46093U 11037JC  21044.93755192  .00041541  00000-0  13569+0 0  9994
2 46093  51.1570 289.5066 2284790  32.4160 339.8346  9.71443925 18668
Source of the keplerian elements: AFSPC